This is the latest recevied weather packets stored in our database for station/object N8ESC. If no packets are shown the sender has not sent any weather packets the latest 10 day(s).
| Time | Temp. | Humidity | Pressure | Rain* | Wind** | Luminosity | Snow |
|---|---|---|---|---|---|---|---|
| 1777500312 | 7.78° C | 64% | 1012.7 hPa | 0 mm | - | 109 W/m² | - |
| 1777500008 | 7.78° C | 63% | 1012.7 hPa | 0 mm | - | 125 W/m² | - |
| 1777499704 | 8.33° C | 65% | 1012.8 hPa | 0 mm | - | 124 W/m² | - |
| 1777499401 | 8.33° C | 64% | 1012.6 hPa | 0 mm | - | 121 W/m² | - |
| 1777499100 | 8.33° C | 64% | 1012.5 hPa | 0 mm | - | 131 W/m² | - |
| 1777498796 | 8.33° C | 64% | 1012.4 hPa | 0 mm | - | 165 W/m² | - |
| 1777498492 | 8.33° C | 65% | 1012.4 hPa | 0 mm | - | 153 W/m² | - |
| 1777498189 | 8.89° C | 65% | 1012.4 hPa | 0 mm | - | 160 W/m² | - |
| 1777497887 | 8.89° C | 61% | 1012.6 hPa | 0 mm | - | 156 W/m² | - |
| 1777497582 | 8.89° C | 60% | 1012.4 hPa | 0 mm | - | 179 W/m² | - |
| 1777497279 | 9.44° C | 55% | 1012.5 hPa | 0 mm | - | 173 W/m² | - |
| 1777496975 | 9.44° C | 47% | 1012.5 hPa | 0 mm | - | 128 W/m² | - |
| 1777496673 | 8.89° C | 49% | 1012.5 hPa | 0 mm | - | 96 W/m² | - |
| 1777496369 | 8.89° C | 51% | 1012.6 hPa | 0 mm | - | 88 W/m² | - |
| 1777496065 | 9.44° C | 49% | 1012.7 hPa | 0 mm | - | 78 W/m² | - |
| 1777495761 | 8.89° C | 50% | 1012.7 hPa | 0 mm | - | 97 W/m² | - |
| 1777495458 | 8.89° C | 52% | 1012.7 hPa | 0 mm | - | 113 W/m² | - |
| 1777495154 | 8.89° C | 52% | 1012.7 hPa | 0 mm | - | 116 W/m² | - |
| 1777494851 | 8.89° C | 52% | 1012.6 hPa | 0 mm | - | 146 W/m² | - |
| 1777494548 | 8.89° C | 54% | 1012.6 hPa | 0 mm | - | 182 W/m² | - |
| 1777494246 | 9.44° C | 53% | 1012.6 hPa | 0 mm | - | 194 W/m² | - |
| 1777493942 | 8.89° C | 53% | 1012.7 hPa | 0 mm | - | 177 W/m² | - |
| 1777493641 | 8.89° C | 52% | 1012.6 hPa | 0 mm | - | 174 W/m² | - |
| 1777493338 | 9.44° C | 50% | 1012.6 hPa | 0 mm | - | 182 W/m² | - |
| 1777493034 | 9.44° C | 51% | 1012.6 hPa | 0 mm | - | 223 W/m² | - |
* Rain latest hour (hover to see other rain measurements)
** Current wind speed in m/s (hover to see current wind gust speed)